08-10-2023, 00:00:03,    214,    0.0,   14.2,   0.00,   0.00, 1020.5,   73.5, -999.0
08-10-2023, 00:00:12,    213,    0.0,   14.1,   0.00,   0.00, 1020.5,   74.0, -999.0
08-10-2023, 00:00:22,    214,    0.0,   14.0,   0.00,   0.00, 1020.5,   74.0, -999.0
08-10-2023, 00:00:33,    213,    0.0,   14.2,   0.00,   0.00, 1020.5,   73.9, -999.0
08-10-2023, 00:00:42,    213,    0.0,   14.2,   0.00,   0.00, 1020.5,   73.7, -999.0
08-10-2023, 00:00:52,    214,    0.0,   14.2,   0.00,   0.00, 1020.4,   73.6, -999.0
08-10-2023, 00:01:02,    213,    0.0,   14.2,   0.00,   0.00, 1020.4,   73.6, -999.0
08-10-2023, 00:01:12,    214,    0.0,   14.0,   0.00,   0.00, 1020.5,   73.6, -999.0
08-10-2023, 00:01:22,    213,    0.0,   14.1,   0.00,   0.00, 1020.5,   73.6, -999.0
08-10-2023, 00:01:32,    213,    0.0,   14.2,   0.00,   0.00, 1020.5,   73.8, -999.0
08-10-2023, 00:01:42,    213,    0.0,   14.2,   0.00,   0.00, 1020.4,   74.3, -999.0
08-10-2023, 00:01:52,    213,    0.0,   14.1,   0.00,   0.00, 1020.5,   74.7, -999.0
08-10-2023, 00:02:02,    214,    0.0,   14.1,   0.00,   0.00, 1020.4,   75.5, -999.0
08-10-2023, 00:02:12,    213,    0.0,   14.1,   0.00,   0.00, 1020.5,   76.5, -999.0
08-10-2023, 00:02:22,    199,    0.0,   14.1,   0.00,   0.00, 1020.5,   77.0, -999.0
08-10-2023, 00:02:32,    200,    0.0,   14.1,   0.00,   0.00, 1020.5,   77.3, -999.0
08-10-2023, 00:02:42,    199,    0.0,   14.1,   0.00,   0.00, 1020.5,   77.9, -999.0
08-10-2023, 00:02:52,    199,    0.0,   14.1,   0.00,   0.00, 1020.5,   78.6, -999.0
08-10-2023, 00:03:02,    199,    0.0,   14.1,   0.00,   0.00, 1020.5,   78.4, -999.0
08-10-2023, 00:03:12,    199,    0.0,   14.1,   0.00,   0.00, 1020.5,   78.1, -999.0
08-10-2023, 00:03:22,    199,    0.0,   14.1,   0.00,   0.00, 1020.5,   77.9, -999.0
08-10-2023, 00:03:32,    199,    0.0,   14.1,   0.00,   0.00, 1020.5,   78.2, -999.0
08-10-2023, 00:03:42,    199,    0.0,   14.1,   0.00,   0.00, 1020.5,   78.6, -999.0
08-10-2023, 00:03:52,    199,    0.0,   14.1,   0.00,   0.00, 1020.5,   78.7, -999.0
08-10-2023, 00:04:02,    200,    0.0,   14.1,   0.00,   0.00, 1020.5,   79.0, -999.0
08-10-2023, 00:04:12,    199,    0.0,   14.1,   0.00,   0.00, 1020.5,   79.6, -999.0
08-10-2023, 00:04:22,    199,    0.0,   14.1,   0.00,   0.00, 1020.5,   79.3, -999.0
08-10-2023, 00:04:32,    199,    0.0,   14.1,   0.00,   0.00, 1020.5,   79.1, -999.0
08-10-2023, 00:04:42,    199,    0.0,   14.1,   0.00,   0.00, 1020.5,   79.6, -999.0
08-10-2023, 00:04:51,    200,    0.0,   14.1,   0.00,   0.00, 1020.5,   80.5, -999.0
08-10-2023, 00:05:02,    199,    0.0,   14.1,   0.00,   0.00, 1020.5,   81.0, -999.0
08-10-2023, 00:05:12,    199,    0.0,   14.1,   0.00,   0.00, 1020.5,   80.6, -999.0
08-10-2023, 00:05:22,    200,    0.0,   14.0,   0.00,   0.00, 1020.5,   80.8, -999.0
08-10-2023, 00:05:31,    199,    0.0,   14.1,   0.00,   0.00, 1020.5,   80.9, -999.0
08-10-2023, 00:05:42,    199,    0.0,   14.0,   0.00,   0.00, 1020.5,   81.3, -999.0
08-10-2023, 00:05:52,    199,    0.0,   14.1,   0.00,   0.00, 1020.6,   81.1, -999.0
08-10-2023, 00:06:01,    200,    0.0,   14.1,   0.00,   0.00, 1020.6,   81.2, -999.0
08-10-2023, 00:06:11,    199,    0.0,   14.1,   0.00,   0.00, 1020.5,   82.0, -999.0
08-10-2023, 00:06:22,    207,    0.0,   14.1,   0.00,   0.00, 1020.5,   82.2, -999.0
08-10-2023, 00:06:31,    209,    0.0,   14.1,   0.00,   0.00, 1020.5,   82.4, -999.0
08-10-2023, 00:06:41,    218,    0.0,   14.1,   0.00,   0.00, 1020.5,   83.1, -999.0
08-10-2023, 00:06:51,    218,    0.0,   14.1,   0.00,   0.00, 1020.5,   84.2, -999.0
08-10-2023, 00:07:02,    219,    0.0,   14.1,   0.00,   0.00, 1020.5,   85.2, -999.0
08-10-2023, 00:07:11,    219,    0.0,   14.1,   0.00,   0.00, 1020.5,   84.8, -999.0
08-10-2023, 00:07:21,    219,    0.0,   14.1,   0.00,   0.00, 1020.5,   83.8, -999.0
08-10-2023, 00:07:31,    218,    0.0,   14.1,   0.00,   0.00, 1020.5,   83.4, -999.0
08-10-2023, 00:07:41,    218,    0.0,   14.1,   0.00,   0.00, 1020.6,   83.4, -999.0
08-10-2023, 00:07:51,    218,    0.0,   14.1,   0.00,   0.00, 1020.6,   83.8, -999.0
08-10-2023, 00:08:01,    218,    0.0,   14.0,   0.00,   0.00, 1020.5,   84.7, -999.0
08-10-2023, 00:08:11,    218,    0.0,   14.1,   0.00,   0.00, 1020.5,   85.4, -999.0
08-10-2023, 00:08:21,    218,    0.0,   14.1,   0.00,   0.00, 1020.5,   86.2, -999.0
08-10-2023, 00:08:31,    218,    0.0,   14.1,   0.00,   0.00, 1020.5,   86.1, -999.0
08-10-2023, 00:08:41,    218,    0.0,   14.0,   0.00,   0.00, 1020.5,   88.0, -999.0
08-10-2023, 00:08:51,    218,    0.0,   14.0,   0.00,   0.00, 1020.6,   89.7, -999.0
08-10-2023, 00:09:01,    218,    0.0,   14.0,   0.00,   0.00, 1020.6,   89.8, -999.0
08-10-2023, 00:09:11,    219,    0.0,   14.0,   0.00,   0.00, 1020.5,   89.5, -999.0
08-10-2023, 00:09:21,    218,    0.0,   14.0,   0.00,   0.00, 1020.6,   89.2, -999.0
08-10-2023, 00:09:31,    219,    0.0,   14.0,   0.00,   0.00, 1020.6,   89.8, -999.0
08-10-2023, 00:09:41,    218,    0.0,   14.0,   0.00,   0.00, 1020.6,   91.1, -999.0
08-10-2023, 00:09:51,    219,    0.0,   14.0,   0.00,   0.00, 1020.5,   92.3, -999.0
08-10-2023, 00:10:01,    219,    0.0,   14.0,   0.00,   0.00, 1020.6,   93.2, -999.0
08-10-2023, 00:10:11,    218,    0.0,   14.0,   0.00,   0.00, 1020.5,   93.3, -999.0
08-10-2023, 00:10:21,    219,    0.0,   14.0,   0.00,   0.00, 1020.5,   94.3, -999.0
08-10-2023, 00:10:31,    218,    0.0,   14.0,   0.00,   0.00, 1020.6,   94.5, -999.0
08-10-2023, 00:10:41,    219,    0.0,   14.0,   0.00,   0.00, 1020.5,   94.9, -999.0
08-10-2023, 00:10:51,    218,    0.0,   14.0,   0.00,   0.00, 1020.6,   95.2, -999.0
08-10-2023, 00:11:01,    219,    0.0,   14.0,   0.00,   0.00, 1020.5,   95.7, -999.0
08-10-2023, 00:11:11,    218,    0.0,   14.0,   0.00,   0.00, 1020.6,   95.2, -999.0
08-10-2023, 00:11:20,    218,    0.0,   14.0,   0.00,   0.00, 1020.5,   95.7, -999.0
08-10-2023, 00:11:31,    219,    0.0,   13.9,   0.00,   0.00, 1020.6,   98.3, -999.0
08-10-2023, 00:11:41,    219,    0.0,   14.0,   0.00,   0.00, 1020.5,   98.7, -999.0
08-10-2023, 00:11:51,    218,    0.0,   14.0,   0.00,   0.00, 1020.6,   98.6, -999.0
08-10-2023, 00:12:01,    218,    0.0,   14.0,   0.00,   0.00, 1020.5,   98.7, -999.0
08-10-2023, 00:12:10,    219,    0.0,   14.0,   0.00,   0.00, 1020.6,   98.7, -999.0
08-10-2023, 00:12:20,    218,    0.0,   14.0,   0.00,   0.00, 1020.5,   98.6, -999.0
08-10-2023, 00:12:31,    218,    0.0,   14.0,   0.00,   0.00, 1020.5,   98.6, -999.0
08-10-2023, 00:12:40,    218,    0.0,   14.0,   0.00,   0.00, 1020.5,   98.6, -999.0
08-10-2023, 00:12:50,    218,    0.0,   13.8,   0.00,   0.00, 1020.5,   98.7, -999.0
08-10-2023, 00:13:00,    218,    0.0,   13.9,   0.00,   0.00, 1020.5,   98.6, -999.0
08-10-2023, 00:13:10,    219,    0.0,   13.9,   0.00,   0.00, 1020.5,   98.6, -999.0
08-10-2023, 00:13:20,    218,    0.0,   14.0,   0.00,   0.00, 1020.5,   98.6, -999.0
08-10-2023, 00:13:30,    218,    0.0,   14.0,   0.00,   0.00, 1020.5,   98.6, -999.0
08-10-2023, 00:13:41,    218,    0.0,   14.0,   0.00,   0.00, 1020.5,   98.6, -999.0
08-10-2023, 00:13:50,    219,    0.0,   14.1,   0.00,   0.00, 1020.5,   98.6, -999.0
08-10-2023, 00:14:00,    218,    0.0,   14.0,   0.00,   0.00, 1020.5,   98.6, -999.0
08-10-2023, 00:14:10,    218,    0.0,   14.0,   0.00,   0.00, 1020.5,   98.6, -999.0
08-10-2023, 00:14:20,    218,    0.0,   14.0,   0.00,   0.00, 1020.5,   98.6, -999.0
08-10-2023, 00:14:30,    218,    0.0,   13.9,   0.00,   0.00, 1020.5,   98.7, -999.0
08-10-2023, 00:14:40,    218,    0.0,   13.9,   0.00,   0.00, 1020.5,   98.6, -999.0
08-10-2023, 00:14:50,    218,    0.0,   14.0,   0.00,   0.00, 1020.5,   98.6, -999.0
08-10-2023, 00:15:00,    218,    0.0,   14.0,   0.00,   0.00, 1020.5,   98.6, -999.0
08-10-2023, 00:15:10,    218,    0.0,   14.0,   0.00,   0.00, 1020.5,   98.6, -999.0
08-10-2023, 00:15:20,    219,    0.0,   14.0,   0.00,   0.00, 1020.5,   98.7, -999.0
08-10-2023, 00:15:30,    219,    0.0,   13.9,   0.00,   0.00, 1020.5,   98.6, -999.0
08-10-2023, 00:15:40,    218,    0.0,   14.0,   0.00,   0.00, 1020.5,   98.6, -999.0
08-10-2023, 00:15:50,    218,    0.0,   14.0,   0.00,   0.00, 1020.5,   98.6, -999.0
08-10-2023, 00:16:00,    219,    0.0,   14.0,   0.00,   0.00, 1020.5,   98.6, -999.0
08-10-2023, 00:16:10,    218,    0.0,   14.0,   0.00,   0.00, 1020.5,   98.6, -999.0
08-10-2023, 00:16:20,    218,    0.0,   14.0,   0.00,   0.00, 1020.5,   98.7, -999.0
08-10-2023, 00:16:30,    218,    0.0,   13.9,   0.00,   0.00, 1020.6,   98.7, -999.0
08-10-2023, 00:16:40,    219,    0.0,   14.0,   0.00,   0.00, 1020.5,   98.6, -999.0
08-10-2023, 00:16:50,    219,    0.0,   14.0,   0.00,   0.00, 1020.5,   98.6, -999.0
08-10-2023, 00:17:00,    219,    0.0,   14.0,   0.00,   0.00, 1020.5,   98.6, -999.0
08-10-2023, 00:17:10,    218,    0.0,   14.0,   0.00,   0.00, 1020.5,   98.6, -999.0
08-10-2023, 00:17:20,    218,    0.0,   13.9,   0.00,   0.00, 1020.5,   98.6, -999.0
08-10-2023, 00:17:29,    218,    0.0,   13.9,   0.00,   0.00, 1020.6,   98.6, -999.0
08-10-2023, 00:17:40,    219,    0.0,   14.0,   0.00,   0.00, 1020.6,   98.7, -999.0
08-10-2023, 00:17:50,    218,    0.0,   14.0,   0.00,   0.00, 1020.6,   98.6, -999.0
08-10-2023, 00:18:00,    219,    0.0,   13.9,   0.00,   0.00, 1020.6,   98.7, -999.0
08-10-2023, 00:18:09,    218,    0.0,   13.9,   0.00,   0.00, 1020.6,   98.6, -999.0
08-10-2023, 00:18:20,    218,    0.0,   13.9,   0.00,   0.00, 1020.6,   98.7, -999.0
08-10-2023, 00:18:30,    218,    0.0,   13.9,   0.00,   0.00, 1020.5,   98.6, -999.0
08-10-2023, 00:18:39,    219,    0.0,   13.9,   0.00,   0.00, 1020.6,   98.6, -999.0
08-10-2023, 00:18:49,    218,    0.0,   13.9,   0.00,   0.00, 1020.5,   98.7, -999.0
08-10-2023, 00:19:00,    218,    0.0,   13.8,   0.00,   0.00, 1020.5,   98.6, -999.0
08-10-2023, 00:19:09,    219,    0.0,   13.8,   0.00,   0.00, 1020.5,   98.7, -999.0
08-10-2023, 00:19:19,    218,    0.0,   13.8,   0.00,   0.00, 1020.6,   98.7, -999.0
08-10-2023, 00:19:29,    218,    0.0,   13.8,   0.00,   0.00, 1020.6,   98.6, -999.0
08-10-2023, 00:19:40,    218,    0.0,   13.8,   0.00,   0.00, 1020.6,   98.6, -999.0
08-10-2023, 00:19:49,    218,    0.0,   13.8,   0.00,   0.00, 1020.5,   98.6, -999.0
08-10-2023, 00:19:59,    219,    0.0,   13.8,   0.00,   0.00, 1020.6,   98.6, -999.0
08-10-2023, 00:20:09,    218,    0.0,   13.8,   0.00,   0.00, 1020.5,   98.7, -999.0
08-10-2023, 00:20:19,    218,    0.0,   13.8,   0.00,   0.00, 1020.6,   98.7, -999.0
08-10-2023, 00:20:29,    218,    0.0,   13.7,   0.00,   0.00, 1020.5,   98.6, -999.0
08-10-2023, 00:20:39,    219,    0.0,   13.7,   0.00,   0.00, 1020.5,   98.6, -999.0
08-10-2023, 00:20:49,    219,    0.0,   13.8,   0.00,   0.00, 1020.5,   98.6, -999.0
08-10-2023, 00:20:59,    219,    0.0,   13.7,   0.00,   0.00, 1020.5,   98.7, -999.0
08-10-2023, 00:21:09,    218,    0.0,   13.8,   0.00,   0.00, 1020.5,   98.6, -999.0
08-10-2023, 00:21:19,    217,    0.0,   13.8,   0.00,   0.00, 1020.5,   98.6, -999.0
08-10-2023, 00:21:29,    218,    0.0,   13.7,   0.00,   0.00, 1020.5,   98.6, -999.0
08-10-2023, 00:21:39,    218,    0.0,   13.7,   0.00,   0.00, 1020.5,   98.6, -999.0
08-10-2023, 00:21:49,    219,    0.0,   13.7,   0.00,   0.00, 1020.5,   98.6, -999.0
08-10-2023, 00:21:59,    219,    0.0,   13.7,   0.00,   0.00, 1020.6,   98.6, -999.0
08-10-2023, 00:22:09,    219,    0.0,   13.8,   0.00,   0.00, 1020.6,   98.7, -999.0
08-10-2023, 00:22:19,    218,    0.0,   13.8,   0.00,   0.00, 1020.5,   98.6, -999.0
08-10-2023, 00:22:29,    219,    0.0,   13.7,   0.00,   0.00, 1020.5,   98.6, -999.0
08-10-2023, 00:22:39,    219,    0.0,   13.8,   0.00,   0.00, 1020.5,   98.6, -999.0
08-10-2023, 00:22:49,    219,    0.0,   13.8,   0.00,   0.00, 1020.5,   98.6, -999.0
08-10-2023, 00:22:59,    219,    0.0,   13.8,   0.00,   0.00, 1020.5,   98.7, -999.0
08-10-2023, 00:23:09,    219,    0.0,   13.8,   0.00,   0.00, 1020.5,   98.6, -999.0
08-10-2023, 00:23:19,    219,    0.0,   13.8,   0.00,   0.00, 1020.5,   98.6, -999.0
08-10-2023, 00:23:29,    219,    0.0,   13.9,   0.00,   0.00, 1020.5,   98.7, -999.0
08-10-2023, 00:23:39,    218,    0.0,   13.9,   0.00,   0.00, 1020.5,   98.6, -999.0
08-10-2023, 00:23:49,    219,    0.0,   13.9,   0.00,   0.00, 1020.5,   98.7, -999.0
08-10-2023, 00:23:58,    219,    0.0,   13.9,   0.00,   0.00, 1020.6,   98.6, -999.0
08-10-2023, 00:24:09,    219,    0.0,   13.9,   0.00,   0.00, 1020.5,   98.6, -999.0
08-10-2023, 00:24:19,    219,    0.0,   13.8,   0.00,   0.00, 1020.5,   98.6, -999.0
08-10-2023, 00:24:28,    219,    0.0,   13.8,   0.00,   0.00, 1020.5,   98.7, -999.0
08-10-2023, 00:24:38,    218,    0.0,   13.8,   0.00,   0.00, 1020.5,   98.6, -999.0
08-10-2023, 00:24:49,    219,    0.0,   13.8,   0.00,   0.00, 1020.5,   98.6, -999.0
08-10-2023, 00:24:59,    219,    0.0,   13.8,   0.00,   0.00, 1020.5,   98.6, -999.0
08-10-2023, 00:25:08,    219,    0.0,   13.8,   0.00,   0.00, 1020.5,   98.6, -999.0
08-10-2023, 00:25:19,    219,    0.0,   13.8,   0.00,   0.00, 1020.5,   98.6, -999.0
08-10-2023, 00:25:29,    218,    0.0,   13.8,   0.00,   0.00, 1020.5,   98.6, -999.0
08-10-2023, 00:25:38,    219,    0.0,   13.8,   0.00,   0.00, 1020.5,   98.6, -999.0
08-10-2023, 00:25:48,    218,    0.0,   13.8,   0.00,   0.00, 1020.6,   98.6, -999.0
08-10-2023, 00:25:59,    219,    0.0,   13.8,   0.00,   0.00, 1020.6,   98.7, -999.0
08-10-2023, 00:26:08,    218,    0.0,   13.8,   0.00,   0.00, 1020.6,   98.6, -999.0
08-10-2023, 00:26:18,    219,    0.0,   13.8,   0.00,   0.00, 1020.5,   98.6, -999.0
08-10-2023, 00:26:28,    219,    0.0,   13.8,   0.00,   0.00, 1020.5,   98.7, -999.0
08-10-2023, 00:26:38,    219,    0.0,   13.9,   0.00,   0.00, 1020.6,   98.7, -999.0
08-10-2023, 00:26:48,    218,    0.0,   13.8,   0.00,   0.00, 1020.5,   98.6, -999.0
08-10-2023, 00:26:58,    218,    0.0,   13.8,   0.00,   0.00, 1020.6,   98.7, -999.0
08-10-2023, 00:27:08,    219,    0.0,   13.8,   0.00,   0.00, 1020.6,   98.6, -999.0
08-10-2023, 00:27:18,    218,    0.0,   13.8,   0.00,   0.00, 1020.5,   98.7, -999.0
08-10-2023, 00:27:28,    218,    0.0,   13.8,   0.00,   0.00, 1020.6,   98.6, -999.0
08-10-2023, 00:27:38,    219,    0.0,   13.7,   0.00,   0.00, 1020.6,   98.6, -999.0
08-10-2023, 00:27:48,    219,    0.0,   13.7,   0.00,   0.00, 1020.6,   98.6, -999.0
08-10-2023, 00:27:58,    219,    0.0,   13.7,   0.00,   0.00, 1020.6,   98.7, -999.0
08-10-2023, 00:28:08,    219,    0.0,   13.7,   0.00,   0.00, 1020.6,   98.6, -999.0
08-10-2023, 00:28:18,    219,    0.0,   13.7,   0.00,   0.00, 1020.6,   98.6, -999.0
08-10-2023, 00:28:28,    219,    0.0,   13.7,   0.00,   0.00, 1020.5,   98.7, -999.0
08-10-2023, 00:28:38,    219,    0.0,   13.7,   0.00,   0.00, 1020.6,   98.7, -999.0
08-10-2023, 00:28:48,    218,    0.0,   13.7,   0.00,   0.00, 1020.6,   81.4, -999.0
08-10-2023, 00:28:58,    219,    0.0,   13.6,   0.00,   0.00, 1020.6,    0.6, -999.0
08-10-2023, 00:29:08,    219,    0.0,   13.6,   0.00,   0.00, 1020.6,    0.3, -999.0
08-10-2023, 00:29:18,    219,    0.0,   13.6,   0.00,   0.00, 1020.6,    0.7, -999.0
08-10-2023, 00:29:28,    218,    0.0,   13.7,   0.00,   0.00, 1020.5,    0.7, -999.0
08-10-2023, 00:29:38,    219,    0.0,   13.7,   0.00,   0.00, 1020.6,    0.4, -999.0
08-10-2023, 00:29:48,    219,    0.0,   13.7,   0.00,   0.00, 1020.6,    0.4, -999.0
08-10-2023, 00:29:58,    218,    0.0,   13.7,   0.00,   0.00, 1020.6,    0.4, -999.0
08-10-2023, 00:30:08,    219,    0.0,   13.7,   0.00,   0.00, 1020.6,    0.5, -999.0
08-10-2023, 00:30:18,    218,    0.0,   13.7,   0.00,   0.00, 1020.6,    0.6, -999.0
08-10-2023, 00:30:27,    219,    0.0,   13.7,   0.00,   0.00, 1020.6,    0.7, -999.0
08-10-2023, 00:30:38,    219,    0.0,   13.7,   0.00,   0.00, 1020.6,    0.4, -999.0
08-10-2023, 00:30:48,    218,    0.0,   13.7,   0.00,   0.00, 1020.6,    0.4, -999.0
08-10-2023, 00:30:57,    219,    0.0,   13.7,   0.00,   0.00, 1020.6,    0.6, -999.0
08-10-2023, 00:31:07,    219,    0.0,   13.7,   0.00,   0.00, 1020.6,    0.4, -999.0
08-10-2023, 00:31:18,    219,    0.0,   13.7,   0.00,   0.00, 1020.6,    0.4, -999.0
08-10-2023, 00:31:27,    219,    0.0,   13.7,   0.00,   0.00, 1020.6,    0.3, -999.0
08-10-2023, 00:31:37,    219,    0.0,   13.7,   0.00,   0.00, 1020.6,    0.5, -999.0
08-10-2023, 00:31:48,    219,    0.0,   13.7,   0.00,   0.00, 1020.6,    0.4, -999.0
08-10-2023, 00:31:57,    219,    0.0,   13.7,   0.00,   0.00, 1020.6,    0.4, -999.0
08-10-2023, 00:32:07,    219,    0.0,   13.7,   0.00,   0.00, 1020.6,    0.5, -999.0
08-10-2023, 00:32:17,    219,    0.0,   13.7,   0.00,   0.00, 1020.6,    0.5, -999.0
08-10-2023, 00:32:28,    219,    0.0,   13.7,   0.00,   0.00, 1020.6,    0.5, -999.0
08-10-2023, 00:32:37,    219,    0.0,   13.7,   0.00,   0.00, 1020.6,    0.5, -999.0
08-10-2023, 00:32:47,    219,    0.0,   13.7,   0.00,   0.00, 1020.6,    0.6, -999.0
08-10-2023, 00:32:57,    219,    0.0,   13.7,   0.00,   0.00, 1020.6,    0.4, -999.0
08-10-2023, 00:33:07,    219,    0.0,   13.7,   0.00,   0.00, 1020.6,    0.5, -999.0
08-10-2023, 00:33:17,    219,    0.0,   13.7,   0.00,   0.00, 1020.5,    0.3, -999.0
08-10-2023, 00:33:27,    219,    0.0,   13.7,   0.00,   0.00, 1020.6,    0.5, -999.0
08-10-2023, 00:33:37,    219,    0.0,   13.7,   0.00,   0.00, 1020.6,    0.4, -999.0
08-10-2023, 00:33:47,    219,    0.0,   13.7,   0.00,   0.00, 1020.6,    0.4, -999.0
08-10-2023, 00:33:57,    219,    0.0,   13.7,   0.00,   0.00, 1020.6,    0.8, -999.0
08-10-2023, 00:34:07,    218,    0.0,   13.7,   0.00,   0.00, 1020.6,    0.6, -999.0
08-10-2023, 00:34:17,    219,    0.0,   13.7,   0.00,   0.00, 1020.6,    0.6, -999.0
08-10-2023, 00:34:27,    219,    0.0,   13.6,   0.00,   0.00, 1020.6,    0.4, -999.0
08-10-2023, 00:34:37,    219,    0.0,   13.7,   0.00,   0.00, 1020.6,    0.5, -999.0
08-10-2023, 00:34:47,    219,    0.0,   13.7,   0.00,   0.00, 1020.6,    0.4, -999.0
08-10-2023, 00:34:57,    219,    0.0,   13.6,   0.00,   0.00, 1020.6,    0.6, -999.0
08-10-2023, 00:35:07,    219,    0.0,   13.7,   0.00,   0.00, 1020.6,    0.5, -999.0
08-10-2023, 00:35:17,    218,    0.0,   13.7,   0.00,   0.00, 1020.6,    0.5, -999.0
08-10-2023, 00:35:27,    219,    0.0,   13.7,   0.00,   0.00, 1020.6,    0.7, -999.0
08-10-2023, 00:35:37,    219,    0.0,   13.7,   0.00,   0.00, 1020.6,    0.5, -999.0
08-10-2023, 00:35:47,    218,    0.0,   13.7,   0.00,   0.00, 1020.5,    0.7, -999.0
08-10-2023, 00:35:57,    219,    0.0,   13.6,   0.00,   0.00, 1020.6,    0.3, -999.0
08-10-2023, 00:36:07,    219,    0.0,   13.6,   0.00,   0.00, 1020.5,    0.5, -999.0
08-10-2023, 00:36:17,    219,    0.0,   13.7,   0.00,   0.00, 1020.5,    0.5, -999.0
08-10-2023, 00:36:27,    218,    0.0,   13.7,   0.00,   0.00, 1020.5,    0.6, -999.0
08-10-2023, 00:36:37,    218,    0.0,   13.7,   0.00,   0.00, 1020.6,    0.4, -999.0
08-10-2023, 00:36:46,    219,    0.0,   13.7,   0.00,   0.00, 1020.6,    0.8, -999.0
08-10-2023, 00:36:57,    219,    0.0,   13.7,   0.00,   0.00, 1020.5,    0.8, -999.0
08-10-2023, 00:37:07,    219,    0.0,   13.7,   0.00,   0.00, 1020.6,    0.4, -999.0
08-10-2023, 00:37:16,    219,    0.0,   13.7,   0.00,   0.00, 1020.6,    0.2, -999.0
08-10-2023, 00:37:26,    219,    0.0,   13.7,   0.00,   0.00, 1020.5,    0.4, -999.0
08-10-2023, 00:37:37,    219,    0.0,   13.7,   0.00,   0.00, 1020.5,    0.4, -999.0
08-10-2023, 00:37:47,    219,    0.0,   13.6,   0.00,   0.00, 1020.5,    0.7, -999.0
08-10-2023, 00:37:56,    218,    0.0,   13.7,   0.00,   0.00, 1020.6,    0.4, -999.0
08-10-2023, 00:38:06,    219,    0.0,   13.7,   0.00,   0.00, 1020.6,    0.4, -999.0
08-10-2023, 00:38:17,    218,    0.0,   13.7,   0.00,   0.00, 1020.6,    0.5, -999.0
08-10-2023, 00:38:26,    219,    0.0,   13.7,   0.00,   0.00, 1020.6,    0.3, -999.0
08-10-2023, 00:38:36,    219,    0.0,   13.7,   0.00,   0.00, 1020.5,    0.4, -999.0
08-10-2023, 00:38:46,    219,    0.0,   13.7,   0.00,   0.00, 1020.6,    0.6, -999.0
08-10-2023, 00:38:56,    219,    0.0,   13.7,   0.00,   0.00, 1020.6,    0.5, -999.0
08-10-2023, 00:39:06,    218,    0.0,   13.6,   0.00,   0.00, 1020.6,    0.6, -999.0
08-10-2023, 00:39:16,    219,    0.0,   13.6,   0.00,   0.00, 1020.6,    0.5, -999.0
08-10-2023, 00:39:26,    219,    0.0,   13.6,   0.00,   0.00, 1020.6,    0.5, -999.0
08-10-2023, 00:39:36,    219,    0.0,   13.6,   0.00,   0.00, 1020.6,    0.6, -999.0
08-10-2023, 00:39:46,    219,    0.0,   13.6,   0.00,   0.00, 1020.6,    0.5, -999.0
08-10-2023, 00:39:56,    219,    0.0,   13.6,   0.00,   0.00, 1020.6,    0.6, -999.0
08-10-2023, 00:40:06,    219,    0.0,   13.6,   0.00,   0.00, 1020.6,    0.5, -999.0
08-10-2023, 00:40:16,    219,    0.0,   13.6,   0.00,   0.00, 1020.6,    0.4, -999.0
08-10-2023, 00:40:26,    219,    0.0,   13.6,   0.00,   0.00, 1020.6,    0.5, -999.0
08-10-2023, 00:40:36,    218,    0.0,   13.6,   0.00,   0.00, 1020.6,    0.5, -999.0
08-10-2023, 00:40:46,    219,    0.0,   13.5,   0.00,   0.00, 1020.6,    0.9, -999.0
08-10-2023, 00:40:56,    219,    0.0,   13.6,   0.00,   0.00, 1020.6,    0.4, -999.0
08-10-2023, 00:41:06,    219,    0.0,   13.6,   0.00,   0.00, 1020.6,    0.7, -999.0
08-10-2023, 00:41:16,    219,    0.0,   13.5,   0.00,   0.00, 1020.6,    0.4, -999.0
08-10-2023, 00:41:26,    219,    0.0,   13.5,   0.00,   0.00, 1020.6,    0.6, -999.0
08-10-2023, 00:41:36,    219,    0.0,   13.5,   0.00,   0.00, 1020.6,    0.7, -999.0
08-10-2023, 00:41:46,    219,    0.0,   13.6,   0.00,   0.00, 1020.6,    0.5, -999.0
08-10-2023, 00:41:56,    219,    0.0,   13.6,   0.00,   0.00, 1020.6,    0.5, -999.0
08-10-2023, 00:42:06,    219,    0.0,   13.5,   0.00,   0.00, 1020.6,    0.3, -999.0
08-10-2023, 00:42:16,    219,    0.0,   13.5,   0.00,   0.00, 1020.6,    0.6, -999.0
08-10-2023, 00:42:26,    218,    0.0,   13.6,   0.00,   0.00, 1020.6,    0.4, -999.0
08-10-2023, 00:42:36,    219,    0.0,   13.5,   0.00,   0.00, 1020.5,    0.3, -999.0
08-10-2023, 00:42:46,    219,    0.0,   13.5,   0.00,   0.00, 1020.6,    0.3, -999.0
08-10-2023, 00:42:56,    219,    0.0,   13.5,   0.00,   0.00, 1020.6,    0.4, -999.0
08-10-2023, 00:43:06,    219,    0.0,   13.5,   0.00,   0.00, 1020.5,    0.5, -999.0
08-10-2023, 00:43:15,    219,    0.0,   13.5,   0.00,   0.00, 1020.6,    0.4, -999.0
08-10-2023, 00:43:26,    219,    0.0,   13.5,   0.00,   0.00, 1020.5,    0.4, -999.0
08-10-2023, 00:43:36,    219,    0.0,   13.5,   0.00,   0.00, 1020.5,    0.2, -999.0
08-10-2023, 00:43:45,    219,    0.0,   13.4,   0.00,   0.00, 1020.6,    0.5, -999.0
08-10-2023, 00:43:55,    219,    0.0,   13.4,   0.00,   0.00, 1020.6,    0.5, -999.0
08-10-2023, 00:44:06,    219,    0.0,   13.4,   0.00,   0.00, 1020.6,    0.5, -999.0
08-10-2023, 00:44:15,    219,    0.0,   13.5,   0.00,   0.00, 1020.6,    0.4, -999.0
08-10-2023, 00:44:26,    219,    0.0,   13.4,   0.00,   0.00, 1020.6,    0.3, -999.0
08-10-2023, 00:44:35,    219,    0.0,   13.4,   0.00,   0.00, 1020.6,    0.3, -999.0
08-10-2023, 00:44:45,    219,    0.0,   13.4,   0.00,   0.00, 1020.6,    0.6, -999.0
08-10-2023, 00:44:55,    219,    0.0,   13.4,   0.00,   0.00, 1020.6,    0.5, -999.0
08-10-2023, 00:45:05,    219,    0.0,   13.4,   0.00,   0.00, 1020.6,    0.1, -999.0
08-10-2023, 00:45:15,    219,    0.0,   13.3,   0.00,   0.00, 1020.6,    0.6, -999.0
08-10-2023, 00:45:25,    219,    0.0,   13.3,   0.00,   0.00, 1020.6,    0.6, -999.0
08-10-2023, 00:45:35,    219,    0.0,   13.3,   0.00,   0.00, 1020.5,    0.5, -999.0
08-10-2023, 00:45:45,    219,    0.0,   13.3,   0.00,   0.00, 1020.6,    0.3, -999.0
08-10-2023, 00:45:55,    219,    0.0,   13.2,   0.00,   0.00, 1020.6,    0.4, -999.0
08-10-2023, 00:46:05,    218,    0.0,   13.3,   0.00,   0.00, 1020.6,    0.4, -999.0
08-10-2023, 00:46:15,    219,    0.0,   13.3,   0.00,   0.00, 1020.6,    0.5, -999.0
08-10-2023, 00:46:25,    219,    0.0,   13.3,   0.00,   0.00, 1020.6,    0.5, -999.0
08-10-2023, 00:46:35,    219,    0.0,   13.3,   0.00,   0.00, 1020.6,    0.4, -999.0
08-10-2023, 00:46:45,    219,    0.0,   13.3,   0.00,   0.00, 1020.6,    0.5, -999.0